Location: Arboucave
(43.6130°N, 0.4343°W)
Time: 08:34:16
(UTC+00:00)

SJ-12 - Pass Details

Date: 17 November 2025
Orbit: 517 x 528 km, 97.8° (Epoch: 13 December)

Event Time Altitude Azimuth Distance (km) Brightness Sun altitude
Rises 17:16:46 0° 154° (SSE) 2,643 7.2 -7.9°
Reaches altitude 10° 17:18:54 10° 149° (SSE) 1,757 6.3 -8.2°
Maximum altitude 17:22:34 50° 73° (ENE) 670 3.9 -8.9°
Drops below altitude 10° 17:26:16 10° 358° (N) 1,764 6.3 -9.5°
Sets 17:28:24 0° 353° (N) 2,655 7.2 -9.9°
